Home > Weather > Trois-Rivieres > Past weeks

Flag for Canada Past Weather in Trois-Rivieres, Quebec, Canada — Yesterday and Last 2 Weeks

Now
62 °F

Cool.


Feels Like: 62 °F
Forecast: 57 / 75 °F
Wind: 1 mph from North

Location: Trois Rivieres

Current Time: Jun 29, 2016 at 11:25:02 PM

Latest Report: Jun 29, 2016 at 11:00 PM


Visibility: N/A

Pressure: 29.88 "Hg

Humidity: 93%

Dew Point: 60 °F

Location of Trois-RivieresLocation

Past Weather in Trois-Rivieres — Graph

°F

Trois-Rivieres Temperature Yesterday

Maximum temperature yesterday: 78 °F (at 3:00 PM)
Minimum temperature yesterday: 67 °F (at 3:00 AM)
Average temperature yesterday: 71 °F

High & Low Weather Summary for the Past Weeks

 TemperatureHumidityPressure
High85 °F (Jun 20, 4:00 PM)96% (Jun 20, 11:00 PM)30.20 "Hg (Jun 20, 11:00 PM)
Low53 °F (Jun 24, 4:00 AM)24% (Jun 15, 6:00 PM)29.53 "Hg (Jun 21, 12:00 AM)
Average68 °F66%29.90 "Hg
* Reported Jun 14 10:00 PM — Jun 29 10:00 PM, Trois-Rivieres, Weather by CustomWeather, © 2016

Note: Actual official high and low records may vary slightly from our data, if they occured in-between our weather recording intervals... More about our weather records

Advertising

Trois-Rivieres Weather History for the Previous 24 Hours

Scroll right to see more
 ConditionsComfort  
Time TempWeatherWind HumidityBarometerVisibility
10:00 PM
Wed, Jun 29
63 °FMild.5 mph90%29.87 "HgN/A
9:00 PM63 °FMild.3 mph88%29.86 "HgN/A
8:00 PM62 °FCool.8 mph96%29.85 "HgN/A
7:00 PM65 °FMild.5 mph83%29.84 "HgN/A
6:00 PM65 °FMild.7 mph89%29.82 "HgN/A
5:00 PM65 °FMild.7 mph92%29.83 "HgN/A
4:00 PM65 °FMild.7 mph94%29.82 "HgN/A
3:00 PM65 °FMild.10 mph92%29.83 "HgN/A
2:00 PM70 °FMild.9 mph83%29.81 "HgN/A
1:00 PM68 °FMild.7 mph88%29.81 "HgN/A
12:00 PM66 °FMild.5 mph96%29.83 "HgN/A
11:00 AM66 °FMild.9 mph95%29.83 "HgN/A
10:00 AM66 °FMild.6 mph95%29.83 "HgN/A
9:00 AM65 °FMild.12 mph95%29.83 "HgN/A
8:00 AM66 °FMild.9 mph95%29.82 "HgN/A
7:00 AM66 °FMild.9 mph95%29.83 "HgN/A
6:00 AM66 °FMild.9 mph95%29.83 "HgN/A
5:00 AM64 °FMild.5 mph96%29.83 "HgN/A
4:00 AM64 °FMild.5 mph93%29.83 "HgN/A
3:00 AM64 °FMild.6 mph90%29.83 "HgN/A
2:00 AM66 °FMild.6 mph83%29.85 "HgN/A
1:00 AM66 °FMild.8 mph82%29.84 "HgN/A
12:00 AM67 °FMild.6 mph81%29.85 "HgN/A
11:00 PM
Tue, Jun 28
69 °FMild.9 mph78%29.84 "HgN/A
Weather by CustomWeather, © 2016

See weather overviewHow to use our weather pages